EW2546 Weather Reports


Display with metric or nautical units.
time (UTC)temp
F
wind
direction
speed
MPH
gust
MPH
rain 1hr
in
rain 24hr
in
rain mn
in
humidity
%
barometer
mb
20260505193038 72 184 2.0 11.0 0.00 0.00 0.00 49 1004.4
20260505192524 73 143 2.0 15.0 0.00 0.00 0.00 51 1004.5
20260505192024 72 152 3.0 15.0 0.00 0.00 0.00 51 1004.5
20260505191543 72 0 4.0 15.0 0.00 0.00 0.00 51 1004.7
20260505191024 71 211 1.0 12.0 0.00 0.00 0.00 52 1004.8
20260505190524 70 155 1.0 11.0 0.00 0.00 0.00 53 1005.0
20260505190040 70 169 4.0 14.0 0.00 0.00 0.00 52 1005.0
20260505185525 71 201 5.0 14.0 0.00 0.00 0.00 51 1005.0
20260505185028 71 206 4.0 11.0 0.00 0.00 0.00 52 1004.9
20260505184541 70 180 2.0 12.0 0.00 0.00 0.00 52 1005.1
20260505184025 70 155 3.0 12.0 0.00 0.00 0.00 53 1005.1
20260505183524 70 113 5.0 12.0 0.00 0.00 0.00 53 1005.2
20260505183050 70 207 4.0 12.0 0.00 0.00 0.00 54 1005.2
20260505182524 71 193 3.0 13.0 0.00 0.00 0.00 51 1005.3
20260505182024 71 155 2.0 13.0 0.00 0.00 0.00 52 1005.3
20260505181539 72 148 2.0 10.0 0.00 0.00 0.00 52 1005.4
20260505181026 72 0 1.0 10.0 0.00 0.00 0.00 52 1005.2
20260505180524 72 161 2.0 12.0 0.00 0.00 0.00 51 1005.3
20260505180041 71 0 2.0 13.0 0.00 0.00 0.00 52 1005.1
20260505175524 71 162 4.0 13.0 0.00 0.00 0.00 50 1005.2
20260505175027 72 149 5.0 13.0 0.00 0.00 0.00 50 1005.3
20260505174544 73 150 0.0 11.0 0.00 0.00 0.00 50 1005.3
20260505174025 73 180 2.0 11.0 0.00 0.00 0.00 48 1005.5
20260505173525 73 174 3.0 11.0 0.00 0.00 0.00 47 1005.5
20260505173042 74 134 1.0 11.0 0.00 0.00 0.00 46 1005.5
20260505172525 75 0 0.0 11.0 0.00 0.00 0.00 49 1005.7
20260505172024 74 112 1.0 10.0 0.00 0.00 0.00 49 1005.8
20260505171546 74 155 0.0 10.0 0.00 0.00 0.00 49 1005.9
20260505171025 74 177 2.0 10.0 0.00 0.00 0.00 49 1005.9
20260505170524 74 125 1.0 8.0 0.00 0.00 0.00 47 1006.0
20260505170039 74 156 1.0 10.0 0.00 0.00 0.00 48 1006.1
20260505165524 74 227 3.0 13.0 0.00 0.00 0.00 47 1006.2
20260505165024 73 187 2.0 13.0 0.00 0.00 0.00 48 1006.5
20260505164537 73 137 3.0 8.0 0.00 0.00 0.00 48 1006.4
20260505164024 72 194 1.0 10.0 0.00 0.00 0.00 50 1006.4
20260505163525 72 151 2.0 10.0 0.00 0.00 0.00 50 1006.7
20260505163035 72 175 2.0 9.0 0.00 0.00 0.00 50 1006.9
20260505162524 71 0 1.0 11.0 0.00 0.00 0.00 51 1007.1
20260505162025 71 176 0.0 11.0 0.00 0.00 0.00 52 1007.0
20260505161543 70 161 1.0 8.0 0.00 0.00 0.00 52 1007.0
20260505161023 70 112 3.0 8.0 0.00 0.00 0.00 53 1007.2
20260505160527 69 0 1.0 4.0 0.00 0.00 0.00 55 1007.2
20260505153035 64 0 0.0 8.0 0.00 0.00 0.00 62 1007.9
20260505152525 63 136 1.0 8.0 0.00 0.00 0.00 63 1008.0
20260505152029 63 0 1.0 8.0 0.00 0.00 0.00 65 1008.1
20260505151536 62 137 1.0 8.0 0.00 0.00 0.00 66 1008.2
20260505151026 61 0 0.0 7.0 0.00 0.00 0.00 67 1008.2
20260505150530 60 0 0.0 9.0 0.00 0.00 0.00 68 1008.3
20260505140526 64 0 0.0 4.0 0.00 0.00 0.00 58 1007.5
20260505125026 60 0 0.0 4.0 0.00 0.00 0.00 65 1007.9
20260505124540 59 0 0.0 4.0 0.00 0.00 0.00 66 1007.9
20260505124027 59 167 0.0 3.0 0.00 0.00 0.00 66 1007.9
20260505123526 58 0 0.0 4.0 0.00 0.00 0.00 67 1008.0
20260505123042 58 0 0.0 5.0 0.00 0.00 0.00 69 1008.1
20260505122526 57 0 0.0 5.0 0.00 0.00 0.00 69 1008.1
20260505122027 57 0 0.0 6.0 0.00 0.00 0.00 69 1008.0
20260505121539 56 0 1.0 6.0 0.00 0.00 0.00 71 1008.1
20260505121026 56 0 0.0 2.0 0.00 0.00 0.00 72 1008.1
20260505120526 55 0 0.0 4.0 0.00 0.00 0.00 74 1008.2
20260505120046 55 171 0.0 4.0 0.00 0.00 0.00 74 1008.2
20260505115529 54 0 0.0 5.0 0.00 0.00 0.00 75 1008.3
20260505115027 53 0 0.0 5.0 0.00 0.00 0.00 77 1008.4
20260505114545 53 228 0.0 8.0 0.00 0.00 0.00 79 1008.5
20260505114024 52 0 0.0 8.0 0.00 0.00 0.00 79 1008.6
20260505113526 51 248 0.0 5.0 0.00 0.00 0.00 82 1008.8
20260505113039 50 0 0.0 4.0 0.00 0.00 0.00 85 1008.4
20260505112526 49 0 0.0 4.0 0.00 0.00 0.00 87 1008.5
20260505112026 48 0 0.0 0.0 0.00 0.00 0.00 90 1008.4
20260505111538 46 0 0.0 0.0 0.00 0.00 0.00 91 1008.5
20260505111026 46 0 0.0 0.0 0.00 0.00 0.00 91 1008.5
20260505110523 45 0 0.0 0.0 0.00 0.00 0.00 91 1008.6
20260505102026 44 0 0.0 0.0 0.00 0.00 0.00 91 1008.5
20260505101549 43 0 0.0 0.0 0.00 0.00 0.00 91 1008.4
20260505101026 43 0 0.0 0.0 0.00 0.00 0.00 91 1008.5
20260505100525 43 0 0.0 0.0 0.00 0.00 0.00 91 1008.5
20260505100038 43 0 0.0 0.0 0.00 0.00 0.00 91 1008.4
20260505095526 43 0 0.0 0.0 0.00 0.00 0.00 91 1008.3
20260505095029 43 0 0.0 0.0 0.00 0.00 0.00 91 1008.4
20260505094540 43 0 0.0 0.0 0.00 0.00 0.00 90 1008.4
20260505094026 43 0 0.0 0.0 0.00 0.00 0.00 91 1008.3
20260505093526 43 0 0.0 0.0 0.00 0.00 0.00 90 1008.4
20260505093035 43 0 0.0 0.0 0.00 0.00 0.00 90 1008.3
20260505092527 43 0 0.0 0.0 0.00 0.00 0.00 90 1008.3
20260505092026 43 0 0.0 0.0 0.00 0.00 0.00 90 1008.3
20260505091537 43 0 0.0 0.0 0.00 0.00 0.00 90 1008.4
20260505091027 43 0 0.0 0.0 0.00 0.00 0.00 89 1008.4
20260505090525 43 0 0.0 0.0 0.00 0.00 0.00 89 1008.4
20260505090042 43 0 0.0 0.0 0.00 0.00 0.00 89 1008.6
20260505085529 43 0 0.0 0.0 0.00 0.00 0.00 89 1008.6
20260505085029 43 0 0.0 0.0 0.00 0.00 0.00 89 1008.6
20260505084541 43 0 0.0 0.0 0.00 0.00 0.00 88 1008.6
20260505084025 43 0 0.0 0.0 0.00 0.00 0.00 88 1008.6
20260505083525 44 0 0.0 0.0 0.00 0.00 0.00 88 1008.7
20260505083035 44 0 0.0 0.0 0.00 0.00 0.00 88 1008.8
20260505082528 44 0 0.0 0.0 0.00 0.00 0.00 88 1008.7
20260505082026 44 0 0.0 0.0 0.00 0.00 0.00 87 1008.7
20260505081535 44 0 0.0 0.0 0.00 0.00 0.00 87 1008.8
20260505081026 44 0 0.0 0.0 0.00 0.00 0.00 87 1008.8
20260505080526 44 0 0.0 0.0 0.00 0.00 0.00 87 1008.7
20260505080044 44 0 0.0 0.0 0.00 0.00 0.00 86 1008.7
20260505075555 44 0 0.0 0.0 0.00 0.00 0.00 86 1008.8
20260505075026 44 0 0.0 0.0 0.00 0.00 0.00 86 1008.8
20260505074540 44 0 0.0 0.0 0.00 0.00 0.00 86 1008.8
20260505074026 45 0 0.0 0.0 0.00 0.00 0.00 86 1008.8
20260505073528 45 0 0.0 0.0 0.00 0.00 0.00 86 1008.7
20260505073047 45 0 0.0 0.0 0.00 0.00 0.00 86 1008.7
20260505072526 45 0 0.0 0.0 0.00 0.00 0.00 85 1008.6
20260505072027 45 0 0.0 0.0 0.00 0.00 0.00 85 1008.6
20260505071549 45 0 0.0 0.0 0.00 0.00 0.00 84 1008.6
20260505071026 45 0 0.0 0.0 0.00 0.00 0.00 84 1008.6
20260505070528 45 0 0.0 0.0 0.00 0.00 0.00 84 1008.7
20260505070039 45 0 0.0 0.0 0.00 0.00 0.00 83 1008.7
20260505065527 46 0 0.0 0.0 0.00 0.00 0.00 83 1008.7
20260505065026 46 0 0.0 0.0 0.00 0.00 0.00 84 1008.7
20260505064543 46 0 0.0 0.0 0.00 0.00 0.00 83 1008.6
20260505064026 46 0 0.0 0.0 0.00 0.00 0.00 83 1008.5
20260505063525 46 0 0.0 0.0 0.00 0.00 0.00 83 1008.6
20260505063038 46 0 0.0 0.0 0.00 0.00 0.00 82 1008.5
20260505062529 46 0 0.0 0.0 0.00 0.00 0.00 81 1008.4
20260505062026 47 0 0.0 0.0 0.00 0.00 0.00 81 1008.4
20260505061542 47 0 0.0 0.0 0.00 0.00 0.00 81 1008.4
20260505061027 47 0 0.0 0.0 0.00 0.00 0.00 81 1008.5
20260505060529 47 0 0.0 0.0 0.00 0.00 0.00 81 1008.5
20260505060047 47 0 0.0 0.0 0.00 0.00 0.00 80 1008.5
20260505055527 47 0 0.0 0.0 0.00 0.00 0.00 79 1008.5
20260505055025 48 0 0.0 0.0 0.00 0.00 0.00 78 1008.5
20260505054538 48 0 0.0 0.0 0.00 0.00 0.00 77 1008.3
20260505054025 48 0 0.0 0.0 0.00 0.00 0.00 77 1008.5
20260505053525 49 0 0.0 0.0 0.00 0.00 0.00 76 1008.5
20260505053043 49 0 0.0 0.0 0.00 0.00 0.00 76 1008.4
20260505052525 49 0 0.0 0.0 0.00 0.00 0.00 75 1008.4
20260505052027 49 0 0.0 0.0 0.00 0.00 0.00 75 1008.3
20260505051548 49 0 0.0 0.0 0.00 0.00 0.00 75 1008.3
20260505051026 49 0 0.0 0.0 0.00 0.00 0.00 75 1008.2
20260505050530 49 0 0.0 1.0 0.00 0.00 0.00 75 1008.2
20260505041538 52 0 0.0 0.0 0.00 0.00 0.00 71 1007.9
20260505041026 52 0 0.0 0.0 0.00 0.00 0.00 72 1007.8
20260505040526 51 0 0.0 4.0 0.00 0.00 0.00 72 1007.7
20260505040042 51 0 0.0 4.0 0.00 0.00 0.00 73 1007.6
20260505035526 50 210 0.0 3.0 0.00 0.00 0.00 75 1007.6
20260505035025 50 0 0.0 4.0 0.00 0.00 0.00 77 1007.6
20260505034540 49 0 0.0 4.0 0.00 0.00 0.00 78 1007.6
20260505034025 48 0 0.0 0.0 0.00 0.00 0.00 80 1007.6
20260505033525 47 0 0.0 0.0 0.00 0.00 0.00 81 1007.6
20260505033038 47 0 0.0 0.0 0.00 0.00 0.00 81 1007.5
20260505032524 47 0 0.0 0.0 0.00 0.00 0.00 81 1007.6
20260505032026 47 0 0.0 0.0 0.00 0.00 0.00 81 1007.6
20260505031536 47 0 0.0 0.0 0.00 0.00 0.00 81 1007.6
20260505031025 47 0 0.0 0.0 0.00 0.00 0.00 80 1007.5
20260505030525 48 0 0.0 0.0 0.00 0.00 0.00 80 1007.4
20260505030043 48 0 0.0 0.0 0.00 0.00 0.00 80 1007.5
20260505025526 48 0 0.0 0.0 0.00 0.00 0.00 80 1007.5
20260505025025 48 0 0.0 0.0 0.00 0.00 0.00 79 1007.5
20260505024540 48 0 0.0 0.0 0.00 0.00 0.00 79 1007.5
20260505024025 48 0 0.0 0.0 0.00 0.00 0.00 79 1007.5
20260505023525 49 0 0.0 0.0 0.00 0.00 0.00 78 1007.5
20260505023041 49 0 0.0 0.0 0.00 0.00 0.00 78 1007.5
20260505022525 49 0 0.0 0.0 0.00 0.00 0.00 77 1007.5
20260505022029 49 0 0.0 0.0 0.00 0.00 0.00 77 1007.5
20260505021538 49 0 0.0 0.0 0.00 0.00 0.00 76 1007.5
20260505021029 49 0 0.0 0.0 0.00 0.00 0.00 76 1007.5
20260505020525 49 0 0.0 0.0 0.00 0.00 0.00 76 1007.4
20260505020038 49 0 0.0 0.0 0.00 0.00 0.00 76 1007.4
20260505015526 50 0 0.0 0.0 0.00 0.00 0.00 76 1007.4
20260505015029 50 0 0.0 0.0 0.00 0.00 0.00 75 1007.4
20260505014536 50 0 0.0 0.0 0.00 0.00 0.00 74 1007.3
20260505014029 50 0 0.0 0.0 0.00 0.00 0.00 74 1007.3
20260505013525 50 0 0.0 0.0 0.00 0.00 0.00 74 1007.3
20260505013055 51 0 0.0 0.0 0.00 0.00 0.00 73 1007.1
20260505012525 51 0 0.0 0.0 0.00 0.00 0.00 73 1007.1
20260505012026 51 0 0.0 0.0 0.00 0.00 0.00 73 1007.0
20260505011541 51 0 0.0 0.0 0.00 0.00 0.00 71 1006.9
20260505011025 52 0 0.0 0.0 0.00 0.00 0.00 71 1006.8
20260505010525 52 0 0.0 0.0 0.00 0.00 0.00 71 1006.8
20260505010041 52 0 0.0 0.0 0.00 0.00 0.00 70 1006.8
20260505005529 52 0 0.0 0.0 0.00 0.00 0.00 69 1006.8
20260505005023 53 0 0.0 0.0 0.00 0.00 0.00 69 1006.7
20260505004539 53 0 0.0 0.0 0.00 0.00 0.00 69 1006.5
20260505004026 53 0 0.0 0.0 0.00 0.00 0.00 69 1006.5
20260505003528 54 0 0.0 0.0 0.00 0.00 0.00 67 1006.4
20260505003036 54 0 0.0 0.0 0.00 0.00 0.00 67 1006.5
20260505002525 55 0 0.0 0.0 0.00 0.00 0.00 66 1006.4
20260505002026 55 0 0.0 0.0 0.00 0.00 0.00 64 1006.3
20260505001538 56 0 0.0 0.0 0.00 0.00 0.00 62 1006.2
20260505001027 56 0 0.0 0.0 0.00 0.00 0.00 61 1006.1
20260505000531 57 0 0.0 0.0 0.00 0.00 0.00 60 1006.0
20260505000050 57 0 0.0 0.0 0.00 0.00 0.00 60 1006.0
20260504235525 57 0 0.0 1.0 0.00 0.00 0.00 59 1005.9
20260504235026 58 0 0.0 1.0 0.00 0.00 0.00 58 1005.9
20260504234542 59 0 0.0 1.0 0.00 0.00 0.00 57 1006.0
20260504234029 59 0 0.0 1.0 0.00 0.00 0.00 57 1006.0
20260504233524 60 0 0.0 1.0 0.00 0.00 0.00 55 1006.0
20260504233043 60 0 0.0 2.0 0.00 0.00 0.00 53 1005.8
20260504232525 61 0 0.0 2.0 0.00 0.00 0.00 52 1005.7
20260504232027 62 0 0.0 2.0 0.00 0.00 0.00 50 1005.6
20260504231539 63 0 0.0 2.0 0.00 0.00 0.00 48 1005.4
20260504231025 63 0 0.0 2.0 0.00 0.00 0.00 47 1005.5
20260504230526 65 0 0.0 1.0 0.00 0.00 0.00 46 1005.3
20260504230037 65 0 0.0 1.0 0.00 0.00 0.00 44 1005.2
20260504225525 66 0 0.0 5.0 0.00 0.00 0.00 40 1005.2
20260504225025 66 0 0.0 5.0 0.00 0.00 0.00 44 1005.2
20260504224543 66 0 0.0 6.0 0.00 0.00 0.00 39 1005.1
20260504224025 67 0 0.0 6.0 0.00 0.00 0.00 39 1005.0
20260504223525 67 0 0.0 4.0 0.00 0.00 0.00 42 1005.0
20260504223038 67 0 0.0 4.0 0.00 0.00 0.00 40 1005.0
20260504222528 67 0 0.0 3.0 0.00 0.00 0.00 38 1005.0
20260504222025 67 0 0.0 2.0 0.00 0.00 0.00 40 1005.0
20260504221537 67 0 0.0 0.0 0.00 0.00 0.00 39 1005.1
20260504221026 68 0 0.0 3.0 0.00 0.00 0.00 40 1005.1
20260504220524 68 0 0.0 3.0 0.00 0.00 0.00 38 1005.0
20260504220044 68 0 0.0 3.0 0.00 0.00 0.00 37 1005.0
20260504215525 69 0 0.0 5.0 0.00 0.00 0.00 35 1005.0
20260504215029 68 0 0.0 5.0 0.00 0.00 0.00 39 1005.0
20260504214545 68 0 0.0 5.0 0.00 0.00 0.00 36 1005.1
20260504214025 68 0 0.0 5.0 0.00 0.00 0.00 36 1005.2
20260504213529 68 237 0.0 6.0 0.00 0.00 0.00 36 1005.2
20260504213040 69 0 1.0 8.0 0.00 0.00 0.00 37 1005.1
20260504212525 69 0 0.0 8.0 0.00 0.00 0.00 37 1005.1
20260504212029 70 255 1.0 8.0 0.00 0.00 0.00 35 1005.0
20260504211537 70 0 0.0 7.0 0.00 0.00 0.00 36 1005.0
20260504211025 70 283 0.0 10.0 0.00 0.00 0.00 35 1005.0
20260504210525 69 0 1.0 10.0 0.00 0.00 0.00 36 1004.9
20260504210041 69 0 3.0 10.0 0.00 0.00 0.00 36 1005.0
20260504205525 69 0 4.0 9.0 0.00 0.00 0.00 36 1005.0
20260504205024 69 0 2.0 7.0 0.00 0.00 0.00 39 1004.9
20260504204540 69 0 1.0 7.0 0.00 0.00 0.00 37 1005.0
20260504204024 70 0 0.0 6.0 0.00 0.00 0.00 37 1005.0
20260504203527 70 0 1.0 11.0 0.00 0.00 0.00 38 1005.0
20260504203040 70 284 0.0 11.0 0.00 0.00 0.00 37 1005.0
20260504202525 70 289 2.0 9.0 0.00 0.00 0.00 39 1005.1
20260504202024 70 0 0.0 8.0 0.00 0.00 0.00 40 1005.1
20260504201536 69 243 1.0 8.0 0.00 0.00 0.00 37 1005.1
20260504201025 69 281 1.0 8.0 0.00 0.00 0.00 38 1005.2
20260504200525 69 258 1.0 6.0 0.00 0.00 0.00 38 1005.3
20260504200045 69 297 0.0 9.0 0.00 0.00 0.00 40 1005.3
20260504195524 68 0 1.0 9.0 0.00 0.00 0.00 40 1005.4
20260504195027 68 303 1.0 6.0 0.00 0.00 0.00 41 1005.3
20260504194535 66 0 0.0 2.0 0.00 0.00 0.00 48 1005.5
20260504194025 65 0 0.0 6.0 0.00 0.00 0.00 47 1005.5
20260504193525 65 0 0.0 7.0 0.00 0.00 0.00 47 1005.6